マクノート彗星

C/2006 K1 ( McNaught )

English version
Home page
Total 6,336 html files since Dec. 4, 1995
Updated on October 26, 2008

---------------------------------------------------------------------

・ プロフィール

発見日 2006年5月17日
発見光度 17.6等
発見者 R. H. McNaught (Siding Spring Survey)

・ 軌道要素

The following orbital elements are taken from MPC 62270:

Epoch 2007 Aug. 8.0 TT = JDT 2454320.5
T 2007 July 20.5586 TT                                  MPC
q   4.425510             (2000.0)            P               Q
z  -0.000336       Peri.  296.4432      +0.6390938      +0.0251448
 +/-0.000001       Node    72.1149      +0.5277811      +0.7126807
e   1.001488       Incl.   53.8770      -0.5594696      +0.7010377
From 280 observations 2006 May 17-2008 Feb. 29, mean residual 0".5.

・ 星図

・ 光度変化

        m1 = 6.5 + 5 logΔ + 10.0 log r

---------------------------------------------------------------------

軌道要素はMPCのEphemerides and Orbital Elementsに掲載されたものです。
星図は StellaNavigator Ver.2.0 for Windows (アストロアーツ 編著 / アスキー出版局刊) で作成したものです。
光度グラフはComet for Windowsで作成したものです。

---------------------------------------------------------------------

Copyright(C) 1995-2008 Seiichi Yoshida (comet@aerith.net). All rights reserved.